Regional Weather Roundup
Issued by NWS Charleston, SC

Current Version | Previous Version | Text Only | Print | Product List | Glossary Off
Versions: 1 2 3 4 5 6 7 8 9 10 11 12 13 14 15 16 17 18 19 20 21 22 23 24 25 26 27 28 29 30 31 32 33 34 35 36 37 38 39 40 41 42 43 44 45 46 47 48 49 50

000
ASUS42 KCHS 010325
RWRCHS

REGIONAL WEATHER ROUNDUP
NATIONAL WEATHER SERVICE CHARLESTON SC
1100 PM EDT SUN AUG 31 2014

NOTE: "FAIR" INDICATES FEW OR NO CLOUDS BELOW 12,000 FEET WITH NO
SIGNIFICANT WEATHER AND/OR OBSTRUCTIONS TO VISIBILITY.

NOT ALL STATIONS ARE QUALITY CONTROLLED BY THE NATIONAL
WEATHER SERVICE. USE DATA WITH CAUTION...ESPECIALLY
DEWPOINT OBSERVATIONS.

SCZ027-030-031-034>040-042>050-010400-
...SOUTH CAROLINA...

CITY           SKY/WX    TMP DP  RH WIND       PRES   REMARKS
N CHARLESTON   MOCLDY    80  75  84 S3        30.12S
WATERFRONT PRK   N/A     82 N/A N/A CALM        N/A
FORT JOHNSON   NOT AVBL
MOUNT PLEASANT FAIR      77  75  94 CALM      30.12S
JOHNS ISLAND   MOCLDY    79  77  94 CALM      30.12S
PINOPOLIS        N/A     82  75  78 CALM      30.05S
MONCKS CORNER    N/A     79  77  94 CALM      30.11S
SUMMERVILLE    FAIR      77  75  94 CALM      30.12S
BEAUFORT MCAS  MOCLDY    80  76  87 CALM      30.12R
BEAUFORT ARPT  FAIR      79  77  94 CALM      30.11S
HILTON HEAD IS PTCLDY    79  77  94 CALM      30.13S
GEORGETOWN     NOT AVBL
WALTERBORO     CLOUDY    77 N/A N/A SE5       30.12S
ORANGEBURG     LGT RAIN  76  72  87 SE3       30.11F
BARNWELL       FAIR      75  75 100 SE3       30.12R
AIKEN          FAIR      73  73 100 CALM      30.16R
MANNING        FAIR      79  73  83 CALM      30.11S
KINGSTREE      NOT AVBL
COLUMBIA       CLOUDY    76  74  93 SW3       30.09F
SUMTER         CLOUDY    75  74  97 S2        30.09S
FLORENCE       CLOUDY    80  73  79 S6        30.10F
MYRTLE BEACH   MOCLDY    82  73  74 SW6       30.12S
N MYRTLE BEACH PTCLDY    82  74  76 S9        30.12S

$$

GAZ063-065-086>088-099>101-113>116-118-119-134-136>141-150-010400-
...GEORGIA...

CITY           SKY/WX    TMP DP  RH WIND       PRES   REMARKS
SAVANNAH ARPT  MOCLDY    80  74  81 S8        30.12S
HUNTER AAF     PTCLDY    79  75  89 SE2       30.11R
FORT STEWART   MOCLDY    78  71  79 SW5       30.11S
STATESBORO     NOT AVBL
SYLVANIA       CLOUDY    71  71 100 CALM      30.13R
CLAXTON        NOT AVBL
THOMSON        CLOUDY    79  77  94 CALM      30.16S
AUGUSTA-BUSH   CLOUDY    73  72  96 CALM      30.11S
AUGUSTA-DANIEL CLOUDY    77  73  87 SE5       30.12F
SWAINSBORO     FAIR      79  79 100 CALM      30.13S
VIDALIA        LGT RAIN  73  73 100 CALM      30.12F
ALMA           CLOUDY    75  73  93 S5        30.13R
WAYCROSS       LGT RAIN  78  75  92 SE7       30.13S
JESUP          LGT RAIN  77  75  94 CALM      30.13S
BRUNSWICK      MOCLDY    81  72  74 CALM      30.14S
SAINT SIMONS   PTCLDY    82  74  76 W6        30.13R

$$

SCZ027-028-034-036>038-045-046-048>050-GAZ119-141-010400-
...LAKE AND SUPPLEMENTAL COASTAL OBSERVATIONS...

STATION/POSITION TIME  TEMP    WIND        PRES    WAVE   SWELL
                       AIR SEA DIR/SP/G            HT/PER HT/PER/DIR
                 (UTC) (F)     (DEG/KT/KT) (MB)    (FT/S) (FT/S/D)
UPR LAKE MARION  NOT AVBL
WINYAH BAY       0300   80     240/  3     1020.0S
LAKE MURRAY      0200   80     180/  7/  9 1018.6F
ACE BASIN NERRS  0300   79        CALM     1020.0S
FORT PULASKI     0300   81     210/  2/  4 1020.3F
SAPELO ISLAND    0300   82     260/  6     1021.0S

$$

ANZ835-935-AMZ111-154-330-350-352-354-374-450-454-472-010400-
...C-MAN AND BUOY OBSERVATIONS...

STATION/POSITION TIME  TEMP    WIND        PRES    WAVE   SWELL
                       AIR SEA DIR/SP/G            HT/PER HT/PER/DIR
                 (UTC) (F)     (DEG/KT/KT) (MB)    (FT/S) (FT/S/D)
FOLLY BEACH CMAN 0300   83     200/  9/ 11 1020.3F
BUOY 41004       0300   82 83  210/  8/ 10 1019.8R   2/ 9   2/ 9
BUOY 41008       0300   83 85  180/ 12/ 14 1019.9R   2/ 9   2/110/ 9
5E ST. MARYS GA  0300      84                N/A     3/ 9
FRYING PAN BUOY  NOT AVBL
BUOY 41025       0300   80     180/ 14/ 16 1020.3R   4/ 8   3/130/ 8
CAPE LOOKOUT NC  0300   81     200/  7/  9 1020.3R
BUOY 41002       0211   81 84  170/  6/  8 1022.1R   3/ 8   3/110/ 8
BUOY 41010       0300   83 84  140/  6/  8 1021.1R   3/ 9   3/100/ 9
BUOY 41012       NOT AVBL
ST AUGUSTINE FL  0300   82     190/  7/  8 1020.9R
CAPERS NEARSHORE 0200   82     230/ 10/ 10   N/A
FRIPP NEARSHORE  NOT AVBL


$$


USA.gov is the U.S. government's official web portal to all federal, state and local government web resources and services.